Weather History for PAWG - April, 2013

Change the Weather History Date:

Wednesday, April 10, 2013

  Actual Average Record
Temperature  
Mean Temperature 37 °F -  
Max Temperature 41 °F 46 °F 59 °F (1959)
Min Temperature 33 °F 32 °F 18 °F (1966)
Degree Days  
Heating Degree Days 28    
Moisture  
Dew Point 28 °F    
Average Humidity 70    
Maximum Humidity 81    
Minimum Humidity 56    
Precipitation  
Precipitation 0.09 in - - ()
Sea Level Pressure  
Sea Level Pressure 30.02 in    
Wind  
Wind Speed 4 mph (SSW)    
Max Wind Speed 16 mph    
Max Gust Speed 26 mph    
Visibility 10 miles    
Events      
Averages and records for this station are not official NWS values.
T = Trace of Precipitation, MM = Missing Value Source: NWS Daily Summary

Daily Weather History Graph

Daily Weather History Graph

Search for Another Location

Airport or City:

Trip Planner

Search our weather history database for the weather conditions in past years. The results will help you decide how hot, cold, wet, or windy it might be!

Date:

Astronomy

Apr. 10, 2013 Rise Set
Actual Time 5:54 AM AKDT 7:48 PM AKDT
Civil Twilight 5:14 AM AKDT 8:28 PM AKDT
Nautical Twilight 4:24 AM AKDT 9:18 PM AKDT
Astronomical Twilight 3:25 AM AKDT 10:18 PM AKDT
Moon 5:48 AM AKDT (4/10) 8:44 PM AKDT (4/10)
Length of Visible Light 15h 13m
Length of Day
13h 53m
New Moon, 0% of the Moon is Illuminated
Apr 10
New Moon
Apr 18
First Quarter
Apr 25
Full
May 2
Last Quarter
May 9
New

Hourly Weather History & Observations

Time (AKDT) Temp. Windchill Dew Point Humidity Pressure Visibility Wind Dir Wind Speed Gust Speed Precip Events Conditions
12:16 AM 37.4 °F 34.9 °F 28.4 °F 70% 29.88 in 10.0 mi SSW 3.5 mph - N/A   Overcast
12:36 AM 37.4 °F - 28.4 °F 70% 29.88 in 10.0 mi Calm Calm - N/A   Overcast
12:56 AM 39.2 °F - 28.4 °F 65% 29.88 in 10.0 mi Calm Calm - N/A   Overcast
1:16 AM 37.4 °F 32.8 °F 28.4 °F 70% 29.88 in 10.0 mi West 5.8 mph - N/A   Overcast
1:36 AM 37.4 °F - 30.2 °F 75% 29.89 in 10.0 mi Calm Calm - N/A   Overcast
1:56 AM 37.4 °F - 28.4 °F 70% 29.89 in 10.0 mi Calm Calm - N/A   Overcast
2:16 AM 37.4 °F - 28.4 °F 70% 29.90 in 10.0 mi Calm Calm - N/A   Overcast
2:36 AM 35.6 °F - 30.2 °F 81% 29.89 in 10.0 mi Calm Calm - N/A   Overcast
2:56 AM 37.4 °F 32.8 °F 28.4 °F 70% 29.89 in 10.0 mi South 5.8 mph - N/A   Mostly Cloudy
3:16 AM 35.6 °F 31.7 °F 28.4 °F 75% 29.89 in 10.0 mi South 4.6 mph - N/A   Overcast
3:36 AM 35.6 °F - 28.4 °F 75% 29.89 in 10.0 mi Calm Calm - N/A   Overcast
3:56 AM 35.6 °F - 30.2 °F 81% 29.90 in 10.0 mi Calm Calm - N/A   Overcast
4:16 AM 35.6 °F - 28.4 °F 75% 29.90 in 10.0 mi Calm Calm - N/A   Overcast
4:36 AM 35.6 °F 32.8 °F 28.4 °F 75% 29.90 in 10.0 mi South 3.5 mph - N/A   Overcast
4:56 AM 35.6 °F - 28.4 °F 75% 29.91 in 10.0 mi Calm Calm - N/A   Overcast
5:16 AM 37.4 °F 33.8 °F 26.6 °F 65% 29.91 in 10.0 mi WSW 4.6 mph - N/A   Overcast
5:36 AM 35.6 °F 32.8 °F 26.6 °F 70% 29.91 in 10.0 mi SSW 3.5 mph - N/A   Overcast
5:56 AM 35.6 °F 32.8 °F 26.6 °F 70% 29.92 in 10.0 mi SSW 3.5 mph - N/A   Overcast
6:16 AM 35.6 °F 31.7 °F 30.2 °F 81% 29.92 in 10.0 mi ESE 4.6 mph - N/A   Overcast
6:36 AM 35.6 °F 30.7 °F 30.2 °F 81% 29.93 in 10.0 mi ESE 5.8 mph - N/A   Overcast
6:56 AM 33.8 °F 28.6 °F 28.4 °F 81% 29.94 in 10.0 mi SSE 5.8 mph - N/A   Mostly Cloudy
7:16 AM 35.6 °F 32.8 °F 30.2 °F 81% 29.95 in 10.0 mi ESE 3.5 mph - N/A   Mostly Cloudy
7:36 AM 35.6 °F 32.8 °F 30.2 °F 81% 29.95 in 10.0 mi SE 3.5 mph - N/A   Mostly Cloudy
7:56 AM 35.6 °F - 30.2 °F 81% 29.96 in 10.0 mi Calm Calm - N/A   Mostly Cloudy
8:16 AM 37.4 °F 34.9 °F 30.2 °F 75% 29.96 in 10.0 mi SE 3.5 mph - N/A   Mostly Cloudy
8:36 AM 37.4 °F 32.8 °F 26.6 °F 65% 29.97 in 10.0 mi West 5.8 mph - N/A   Mostly Cloudy
8:56 AM 37.4 °F 32.8 °F 28.4 °F 70% 29.97 in 10.0 mi WNW 5.8 mph - N/A   Mostly Cloudy
9:16 AM 37.4 °F 31.4 °F 26.6 °F 65% 29.98 in 10.0 mi West 8.1 mph - N/A   Mostly Cloudy
9:36 AM 37.4 °F 33.8 °F 28.4 °F 70% 29.98 in 10.0 mi SW 4.6 mph - N/A   Mostly Cloudy
9:56 AM 39.2 °F 33.0 °F 26.6 °F 61% 29.99 in 10.0 mi West 9.2 mph - N/A   Mostly Cloudy
10:16 AM 39.2 °F 33.6 °F 28.4 °F 65% 29.99 in 10.0 mi West 8.1 mph - N/A   Mostly Cloudy
10:36 AM 39.2 °F 34.2 °F 26.6 °F 61% 30.00 in 10.0 mi West 6.9 mph - N/A   Mostly Cloudy
10:56 AM 39.2 °F 35.0 °F 24.8 °F 56% 30.00 in 10.0 mi WSW 5.8 mph - N/A   Overcast
11:16 AM 39.2 °F 33.0 °F 26.6 °F 61% 30.00 in 10.0 mi WSW 9.2 mph - N/A   Overcast
11:36 AM 39.2 °F 33.6 °F 26.6 °F 61% 30.01 in 10.0 mi SSW 8.1 mph - N/A   Overcast
11:56 AM 39.2 °F 34.2 °F 26.6 °F 61% 30.02 in 10.0 mi SSW 6.9 mph - N/A   Overcast
12:16 PM 39.2 °F 35.0 °F 26.6 °F 61% 30.02 in 10.0 mi SSW 5.8 mph - N/A   Overcast
12:36 PM 39.2 °F 31.2 °F 26.6 °F 61% 30.03 in 10.0 mi West 13.8 mph 19.6 mph N/A   Overcast
12:56 PM 33.8 °F 26.4 °F 26.6 °F 75% 30.05 in 0.5 mi SW 9.2 mph - N/A   Overcast
1:16 PM 33.8 °F 26.4 °F 26.6 °F 75% 30.05 in 10.0 mi SSE 9.2 mph - 0.01 in   Mostly Cloudy
1:36 PM 35.6 °F 29.2 °F 30.2 °F 81% 30.05 in 10.0 mi ENE 8.1 mph - 0.02 in   Mostly Cloudy
1:56 PM 37.4 °F 32.1 °F 30.2 °F 75% 30.06 in 10.0 mi ESE 6.9 mph - 0.02 in   Mostly Cloudy
2:16 PM 37.4 °F 31.4 °F 32.0 °F 81% 30.06 in 10.0 mi ESE 8.1 mph - N/A   Mostly Cloudy
2:36 PM 37.4 °F 32.1 °F 30.2 °F 75% 30.06 in 10.0 mi SSE 6.9 mph - N/A   Mostly Cloudy
2:56 PM 39.2 °F 34.2 °F 28.4 °F 65% 30.06 in 10.0 mi South 6.9 mph - N/A   Mostly Cloudy
3:16 PM 41.0 °F 38.0 °F 26.6 °F 57% 30.06 in 10.0 mi SSW 4.6 mph - N/A   Mostly Cloudy
3:36 PM 41.0 °F 35.2 °F 26.6 °F 57% 30.06 in 10.0 mi SW 9.2 mph - N/A   Mostly Cloudy
3:56 PM 39.2 °F 30.5 °F 26.6 °F 61% 30.07 in 10.0 mi WSW 16.1 mph 26.5 mph N/A   Mostly Cloudy
4:16 PM 33.8 °F 28.6 °F 26.6 °F 75% 30.09 in 5.0 mi SW 5.8 mph - N/A   Overcast
4:36 PM 33.8 °F 28.6 °F 28.4 °F 81% 30.09 in 5.0 mi South 5.8 mph - N/A   Overcast
4:56 PM 35.6 °F 29.9 °F 30.2 °F 81% 30.09 in 5.0 mi East 6.9 mph - N/A   Overcast
5:16 PM 35.6 °F 29.2 °F 28.4 °F 75% 30.09 in 10.0 mi SSE 8.1 mph - 0.02 in   Mostly Cloudy
5:36 PM 35.6 °F 30.7 °F 30.2 °F 81% 30.09 in 5.0 mi SE 5.8 mph - 0.04 in   Mostly Cloudy
5:56 PM 35.6 °F 29.9 °F 30.2 °F 81% 30.09 in 10.0 mi ESE 6.9 mph - 0.05 in   Mostly Cloudy
6:16 PM 37.4 °F 32.8 °F 28.4 °F 70% 30.10 in 10.0 mi SSW 5.8 mph - 0.01 in   Mostly Cloudy
6:36 PM 37.4 °F 31.4 °F 28.4 °F 70% 30.09 in 10.0 mi SSW 8.1 mph - 0.02 in   Mostly Cloudy
6:56 PM 37.4 °F 33.8 °F 28.4 °F 70% 30.10 in 10.0 mi SW 4.6 mph - 0.02 in   Mostly Cloudy
7:16 PM 37.4 °F 29.8 °F 26.6 °F 65% 30.10 in 10.0 mi West 11.5 mph 17.3 mph N/A   Mostly Cloudy
7:36 PM 37.4 °F 28.9 °F 26.6 °F 65% 30.11 in 10.0 mi SSW 13.8 mph 20.7 mph N/A   Mostly Cloudy
7:56 PM 35.6 °F 28.6 °F 24.8 °F 65% 30.12 in 10.0 mi WSW 9.2 mph - N/A   Mostly Cloudy
8:16 PM 35.6 °F 28.0 °F 24.8 °F 65% 30.13 in 10.0 mi WSW 10.4 mph - N/A   Mostly Cloudy
8:36 PM 35.6 °F 32.8 °F 24.8 °F 65% 30.14 in 10.0 mi SSW 3.5 mph - N/A   Mostly Cloudy
8:56 PM 35.6 °F 31.7 °F 24.8 °F 65% 30.14 in 10.0 mi SSW 4.6 mph - N/A   Mostly Cloudy
9:16 PM 35.6 °F 29.9 °F 24.8 °F 65% 30.15 in 10.0 mi SSW 6.9 mph - N/A   Mostly Cloudy
9:36 PM 35.6 °F 29.9 °F 24.8 °F 65% 30.15 in 10.0 mi SSW 6.9 mph - N/A   Mostly Cloudy
9:56 PM 35.6 °F 31.7 °F 26.6 °F 70% 30.16 in 10.0 mi SW 4.6 mph - N/A   Mostly Cloudy
10:16 PM 35.6 °F 31.7 °F 24.8 °F 65% 30.16 in 10.0 mi SSW 4.6 mph - N/A   Mostly Cloudy
10:36 PM 35.6 °F 29.9 °F 26.6 °F 70% 30.17 in 10.0 mi SSW 6.9 mph - N/A   Mostly Cloudy
10:56 PM 35.6 °F 30.7 °F 26.6 °F 70% 30.17 in 10.0 mi South 5.8 mph - N/A   Mostly Cloudy
11:16 PM 35.6 °F - 26.6 °F 70% 30.18 in 10.0 mi Calm Calm - N/A   Mostly Cloudy
11:36 PM 35.6 °F 31.7 °F 26.6 °F 70% 30.18 in 10.0 mi SSW 4.6 mph - N/A   Overcast
11:56 PM 35.6 °F 30.7 °F 24.8 °F 65% 30.18 in 10.0 mi SSW 5.8 mph - N/A   Overcast